Terminal Aerodrome Forecast
Issued by NWS Central Illinois

Home | Current Version | Previous Version | Text Only | Print | Product List | Glossary On
Versions: 1 2 3 4 5 6 7 8 9 10 11 12 13 14 15 16 17 18 19 20 21 22 23 24
000
FTUS43 KILX 180100 AAA
TAFPIA
TAF AMD
KPIA 180131Z 1802/1824 VRB03KT P6SM SCT025 BKN250
      TEMPO 1802/1804 BKN025
     FM181200 VRB03KT P6SM OVC120
     FM181600 VRB03KT P6SM OVC050
     FM182100 VRB03KT P6SM SCT050 BKN250=

USA.gov is the U.S. government's official web portal to all federal, state and local government web resources and services.